Regional Weather Roundup
Issued by NWS State College, PA

Home | Current Version | Previous Version | Text Only | Print | Product List | Glossary On
Versions: 1 2 3 4 5 6 7 8 9 10 11 12 13 14 15 16 17 18 19 20 21 22 23 24 25 26 27 28 29 30 31 32 33 34 35 36 37 38 39 40 41 42 43 44 45 46 47 48 49 50
000
ASUS41 KCTP 191510
RWRCTP

REGIONAL WEATHER ROUNDUP
NATIONAL WEATHER SERVICE STATE COLLEGE PA
1100 AM EDT SAT APR 19 2014

Note: "fair" indicates few or no clouds below 12,000 feet with no
significant weather and/or obstructions to visibility.

* = STATION THAT DOES NOT REPORT PRECIPITATION /E.G. RAIN...SNOW...ETC/
    THUNDER OR FOG.

PAZ002>004-007>009-013>016-020>023-029>032-191600-
WESTERN PENNSYLVANIA

CITY           SKY/WX    TMP DP  RH WIND       PRES   REMARKS
ERIE           SUNNY     44  31  60 N6        30.44S
MEADVILLE      SUNNY     46  26  45 N13G20    30.39S
FRANKLIN*      SUNNY     46  19  34 N8G18     30.40S
NEW CASTLE     FAIR      50  28  42 N12       30.40F
BEAVER COUNTY  SUNNY     52  30  43 N7        30.38S
BUTLER*        SUNNY     52  28  40 NE10      30.39S
PITTSBURGH INT MOSUNNY   55  34  45 NE8G17    30.37R
PITTSBURGH     SUNNY     58  34  40 N10G17    30.35S
INDIANA*       SUNNY     54  27  35 N10       30.36S
LATROBE        MOSUNNY   57  36  44 N9G16     30.36S
WASHINGTON CO* SUNNY     55  37  50 NE14G20   30.37S
$$

PAZ004>006-010>012-017>019-024>028-033>037-041-042-045-046-049>053-191600-
CENTRAL PENNSYLVANIA

CITY           SKY/WX    TMP DP  RH WIND       PRES   REMARKS
BRADFORD       SUNNY     46  22  38 VRB7      30.36R
DUBOIS         SUNNY     52  23  32 NE13      30.35R
CLEARFIELD     SUNNY     53  22  29 N9        30.35S
JOHNSTOWN      SUNNY     52  28  39 N13       30.32S
ALTOONA        SUNNY     56  34  43 N14       30.33S
STATE COLLEGE  SUNNY     55  25  30 NE12      30.33F
WILLIAMSPORT   MOSUNNY   54  23  30 NW10      30.36R
SELINSGROVE    SUNNY     57  29  34 NE15      30.35S
FT INDIANTOWN  NOT AVBL
CAPITAL CITY   SUNNY     58  29  33 NW9       30.33R
HARRISBURG     PTSUNNY   61  29  29 N13G21    30.31S
YORK           SUNNY     60  32  34 N12       30.31S
$$

PAZ038>040-043-044-047-048-054-055-060>062-067>071-191600-
EASTERN PENNSYLVANIA

CITY           SKY/WX    TMP DP  RH WIND       PRES   REMARKS
SCRANTON       MOSUNNY   51  29  42 NW13G20   30.33R
MOUNT POCONO   SUNNY     50  20  30 N15G23    30.28R
ALLENTOWN      SUNNY     59  29  31 N10       30.30S
QUAKERTOWN*    SUNNY     57  36  44 NW13      30.31S
READING        SUNNY     58  36  43 NW12      30.31R
LANCASTER      SUNNY     58  33  39 N13       30.31R
COATESVILLE    SUNNY     59  30  33 N10G16    30.30S
POTTSTOWN      SUNNY     58  34  40 N9        30.31S
BLUE BELL      SUNNY     61  32  33 NW7       30.29S
DOYLESTOWN     SUNNY     58  33  39 N7G17     30.29S
WILLOW GROVE   NOT AVBL
NORTH PHILA    SUNNY     61  32  33 N13       30.31S
PHILADELPHIA   PTSUNNY   60  34  37 N7        30.30F
$$



USA.gov is the U.S. government's official web portal to all federal, state and local government web resources and services.